FENGYUN 1C DEB

Satellite information

Favourite Embed

Satellite Type and Status

DEBRISIN ORBIT

Key statistics

Satellite FENGYUN 1C DEB at a glance.

Uptime

9495

Days in orbit

Revolutions

≈ 14.7

Per day

Orbit

SSO

Sun Synchronous Orbit

Inclination

98.8

Latest

Satellite identification and parameters

Extended collection of information and parameters for FENGYUN 1C DEB.

Object identification

Identified? True

Debris? True

Object name: FENGYUN 1C DEB

International designator: 1999-025CXF

Object number (NORAD): 32314

Object ID (CCSDS): 32314

Country: PEOPLES REPUBLIC OF CHINA (PRC)

Current information (Y/N): Y

RCS size: SMALL

Orbital parameters

Period: 97.646 minutes

Inclination: 98.8484 deg

SMA: 7024.194 km

Apoapsis: 759.663 km

Periapsis: 532.456 km

RAAN: 208.358 deg

Eccentricy: 0.0161732

Argument of periapsis: 135.2975 deg

Mean anomaly: 226.1401 deg

Mean motion: 14.74714603 rev/day

Mean motion (dot): 0.00017197 rev/day2

B* drag term: 0.0020857 1/REarth

Two-line elements (TLE)

Creation date: May 5, 2025, 6:56 a.m.

Reference frame: TEME

Reference center: EARTH

Epoch: May 4, 2025, 10:47 p.m. UTC

TLE line 0: 0 FENGYUN 1C DEB

TLE line 1: 1 32314U 99025CXF 25124.94939099 .00017197 00000-0 20857-2 0 9993

TLE line 2: 2 32314 98.8484 208.3580 0161732 135.2975 226.1401 14.74714603941551

Live tracking on map

Real-time ground track for satellite FENGYUN 1C DEB.

In-orbit conjunctions

A list of the most updated potential collisions computed for object FENGYUN 1C DEB.

Target Orbit TCA Probability of collision Miss distance Type
DEMETER SSO 2025-04-13 03:33:47 0.0001423089 703.0 (m) PAYLOAD

Associated space launch

Chinese polar orbiting meteorological satellite

FENGYUN 1C DEB was lifted into orbit during the mission ‘Long March 4B | Feng Yun 1C’, on board a Long March 4B space rocket.

The launch took place on May 10, 1999, 1:33 a.m. from Launch Complex 7.

For more information about the launch, click the button.

Launch to space Long March 4B | Feng Yun 1C
Long March 4B | Feng Yun 1C

Agency: N/A

Status: Launch Successful

Launch date: May 10, 1999, 1:33 a.m. UTC

Rocket: Long March 4B

Launch pad: Launch Complex 7

Location: Taiyuan Satellite Launch Center, People's Republic of China

...

Latest news about this satellite

There are no fresh news available about this satellite. Check back as we update our databases every day.


Newsletter sign-up

Weekly statistics, charts and insights to help you stay on top of the space industry.